User: anonymous   Login
Location: Embarras
(53.3000°N, 116.9000°W)
Time: 09:28:25
(UTC+00:00)
Language:

KAITUO 1B - Orbit

View from above orbital plane
View from above orbital plane
View from above satellite
View from above satellite

Ground track
Ground track

The orbit data is extracted from the following two-line orbital elements,

1 40912U 15049P   23341.80185869  .00155810  00000-0  10688-2 0  9998
2 40912  97.3929   5.6451 0005847 131.5360 228.6406 15.74233446456586
Epoch (UTC): 07 December 2023 19:14:40
Eccentricity: 0.0005847
inclination: 97.3929°
perigee height: 343 km
apogee height: 351 km
right ascension of ascending node: 5.6451°
argument of perigee: 131.5360°
revolutions per day: 15.74233446
mean anomaly at epoch: 228.6406°
orbit number at epoch: 45658

The dashed part of the orbit path shows where the satellite is in the earth's shadow,  

DLR